Content
SEND FEEDBACK

Daily
Averages
Monthly
Summary
Canada

DRUMHELLER, ALBERTA


Home > North America > Canada > Alberta
Elevation: 2254 feet     Latitude: 51 28N     Longitude: 112 43W

WEATHER
 
SELECT A DAY
Number of Records: 140,160;   Date Range: 1/1/95 - 10/20/14
 
SHARE

PRINT THIS DATA

[ ← Previous Day ]
WEATHER ALMANAC - FEBRUARY 5, 2013
[ Next Day → ]
[ °C ]   °F
Weather ElementAverageHighLow
Temperature17.8 °F33.6 °F (1:00 pm)3.6 °F (8:00 am)
Dewpoint14.8 °F26.1 °F (1:00 pm)1.2 °F (8:00 am)
Humidity87.7 %94 % (1:00 am)72 % (2:00 pm)
Barometer29.75 in29.95 in (1:00 am)29.61 in (5:00 pm)
Wind Speed3.5 mph11.5 mph (2:00 pm)
Weather ElementAverage
Wind DirectionSSE (164.6 °)

Weather ElementTotal
Precipitation---
Heating Degree Days46.4 (Base 65)
Averaged from 26 records on February 5, 2013
WEATHER CONDITIONS BREAKOUT
WIND DIRECTION BREAKOUT
WEATHER BY HOUR - FEBRUARY 5, 2013
[ °C ]   °F
Local TimeTemperatureDewpointHumidityBarometerVisibilityWind DirectionWind SpeedGust SpeedPrecipitationEventsConditions
1:00 AM17.2 °F15.8 °F94 %29.95 inEast (100°)1.2 mph
2:00 AM12.4 °F10.8 °F93 %29.94 inCalm
3:00 AM9.5 °F7.9 °F93 %29.95 inCalm
5:00 AM6.0 °F4.0 °F88 %29.94 inNorth (350°)2.3 mph
5:00 AM6.1 °F4.1 °F92 %29.94 inNorth (350°)2.3 mph
6:00 AM4.6 °F2.5 °F91 %29.91 inCalm
7:00 AM4.6 °F2.8 °F92 %29.86 inCalm
8:00 AM3.6 °F1.2 °F90 %29.83 inCalm
9:00 AM7.0 °F5.0 °F92 %29.83 inCalm
10:00 AM12.2 °F10.6 °F93 %29.77 inCalm
11:00 AM20.0 °F18.0 °F87 %29.75 inNNE (20°)1.2 mph
11:00 AM19.9 °F17.8 °F91 %29.75 inNNE (20°)1.2 mph
12:00 PM23.2 °F21.0 °F91 %29.70 inNW (310°)2.3 mph
1:00 PM33.6 °F26.1 °F74 %29.68 inSE (140°)1.2 mph
2:00 PM31.3 °F23.2 °F72 %29.63 inSE (130°)11.5 mph
3:00 PM30.6 °F22.6 °F72 %29.62 inSSE (150°)8.1 mph
4:00 PM26.8 °F21.7 °F81 %29.62 inSSE (160°)9.2 mph
5:00 PM26.0 °F22.0 °F78 %29.61 inSouth (170°)9.2 mph
5:00 PM26.1 °F21.9 °F84 %29.61 inSouth (170°)9.2 mph
6:00 PM23.7 °F20.3 °F87 %29.64 inNW (310°)2.3 mph
7:00 PM21.6 °F19.2 °F91 %29.65 inNW (310°)2.3 mph
8:00 PM19.4 °F17.8 °F93 %29.66 inNW (310°)3.5 mph
9:00 PM20.3 °F18.5 °F93 %29.68 inNW (310°)6.9 mph
10:00 PM19.8 °F17.4 °F91 %29.70 inNNW (330°)4.6 mph
11:00 PM18.0 °F16.0 °F86 %29.70 inNW (320°)5.8 mph
11:00 PM18.0 °F15.6 °F91 %29.70 inNW (320°)5.8 mph
Hourly data recorded from CWDZ, located miles away from Drumheller, Alberta







STORIES FROM OUR PARTNERS